,,,PA_Meas_PMT16A,,PR_Meas_QMR101_102,,RH_Meas_QMH101,,SR_Meas_QMS101,,TA_Meas_QMH101,,GenWind,,GenWind,
date,time,status,PA,status,PR,status,RH,status,SR,status,TA,status,DirAvg,status,SpdAvg,
2014-05-26, 00:00:04,VALID,1010.42,VALID,0,INVALID,110.238,VALID,0,VALID,24.7074,VALID,299,VALID,0,
2014-05-26, 00:01:04,VALID,1010.42,VALID,0,INVALID,110.23,VALID,0,VALID,24.7074,VALID,299,VALID,0,
2014-05-26, 00:02:04,VALID,1010.41,VALID,0,INVALID,110.291,VALID,0,VALID,24.6879,VALID,299,VALID,0,
2014-05-26, 00:03:04,VALID,1010.38,VALID,0,INVALID,110.253,VALID,0,VALID,24.6879,VALID,299,VALID,0,
2014-05-26, 00:04:04,VALID,1010.32,VALID,0,INVALID,110.246,VALID,0,VALID,24.6879,VALID,299,VALID,0,
2014-05-26, 00:05:04,VALID,1010.3,VALID,0,INVALID,110.268,VALID,0,VALID,24.7093,VALID,299,VALID,0,
2014-05-26, 00:06:04,VALID,1010.27,VALID,0,INVALID,110.261,VALID,0,VALID,24.6879,VALID,299,VALID,0,
2014-05-26, 00:07:04,VALID,1010.24,VALID,0,INVALID,110.261,VALID,0,VALID,24.6879,VALID,299,VALID,0,
2014-05-26, 00:08:04,VALID,1010.21,VALID,0,INVALID,110.291,VALID,0,VALID,24.6879,VALID,299,VALID,0,
2014-05-26, 00:09:04,VALID,1010.21,VALID,0,INVALID,110.276,VALID,0,VALID,24.6879,VALID,299,VALID,0,
2014-05-26, 00:10:04,VALID,1010.22,VALID,0,INVALID,110.299,VALID,0,VALID,24.7074,VALID,299,VALID,0,
2014-05-26, 00:11:04,VALID,1010.21,VALID,0,INVALID,110.307,VALID,0,VALID,24.7269,VALID,299,VALID,0,
2014-05-26, 00:12:04,VALID,1010.2,VALID,0,INVALID,110.307,VALID,0,VALID,24.7269,VALID,299,VALID,0,
2014-05-26, 00:13:04,VALID,1010.19,VALID,0,INVALID,110.284,VALID,0,VALID,24.7464,VALID,299,VALID,0,
2014-05-26, 00:14:04,VALID,1010.18,VALID,0,INVALID,110.276,VALID,0,VALID,24.8067,VALID,299,VALID,0,
2014-05-26, 00:15:04,VALID,1010.16,VALID,0,INVALID,110.291,VALID,0,VALID,24.8049,VALID,299,VALID,0,
2014-05-26, 00:16:04,VALID,1010.13,VALID,0,INVALID,110.284,VALID,0,VALID,24.8438,VALID,299,VALID,0,
2014-05-26, 00:17:04,VALID,1010.08,VALID,0,INVALID,110.284,VALID,0,VALID,24.8633,VALID,299,VALID,0,
2014-05-26, 00:18:04,VALID,1010.08,VALID,0,INVALID,110.276,VALID,0,VALID,24.8828,VALID,299,VALID,0,
2014-05-26, 00:19:04,VALID,1010.08,VALID,0,INVALID,110.299,VALID,0,VALID,24.9023,VALID,299,VALID,0,
2014-05-26, 00:20:04,VALID,1010.09,VALID,0,INVALID,110.291,VALID,0,VALID,24.9413,VALID,299,VALID,0,
2014-05-26, 00:21:04,VALID,1010.06,VALID,0,INVALID,110.284,VALID,0,VALID,24.9413,VALID,299,VALID,0,
2014-05-26, 00:22:04,VALID,1010.1,VALID,0,INVALID,110.253,VALID,0,VALID,24.9608,VALID,299,VALID,0,
2014-05-26, 00:23:04,VALID,1010.11,VALID,0,INVALID,110.185,VALID,0,VALID,24.9803,VALID,299,VALID,0,
2014-05-26, 00:24:04,VALID,1010.06,VALID,0,INVALID,110.078,VALID,0,VALID,25.0193,VALID,299,VALID,0,
2014-05-26, 00:25:04,VALID,1010.07,VALID,0,INVALID,109.971,VALID,0,VALID,25.0212,VALID,299,VALID,0,
2014-05-26, 00:26:04,VALID,1010.06,VALID,0,INVALID,109.857,VALID,0,VALID,24.9979,VALID,299,VALID,0,
2014-05-26, 00:27:04,VALID,1010.05,VALID,0,INVALID,109.796,VALID,0,VALID,25.0193,VALID,299,VALID,0,
2014-05-26, 00:28:04,VALID,1010.02,VALID,0,INVALID,109.689,VALID,0,VALID,25.0388,VALID,299,VALID,0,
2014-05-26, 00:29:04,VALID,1009.99,VALID,0,INVALID,109.628,VALID,0,VALID,25.0193,VALID,299,VALID,0,
2014-05-26, 00:30:04,VALID,1009.98,VALID,0,INVALID,109.582,VALID,0,VALID,25.0602,VALID,299,VALID,0,
2014-05-26, 00:31:04,VALID,1009.99,VALID,0,INVALID,109.582,VALID,0,VALID,25.0388,VALID,299,VALID,0,
2014-05-26, 00:32:04,VALID,1009.97,VALID,0,INVALID,109.582,VALID,0,VALID,25.0369,VALID,299,VALID,0,
2014-05-26, 00:33:04,VALID,1009.96,VALID,0,INVALID,109.605,VALID,0,VALID,25.0583,VALID,299,VALID,0,
2014-05-26, 00:34:04,VALID,1009.94,VALID,0,INVALID,109.605,VALID,0,VALID,25.0778,VALID,299,VALID,0,
2014-05-26, 00:35:04,VALID,1009.93,VALID,0,INVALID,109.597,VALID,0,VALID,25.0778,VALID,299,VALID,0,
2014-05-26, 00:36:04,VALID,1009.95,VALID,0,INVALID,109.605,VALID,0,VALID,25.0973,VALID,299,VALID,0,
2014-05-26, 00:37:04,VALID,1009.98,VALID,0,INVALID,109.613,VALID,0,VALID,25.0973,VALID,299,VALID,0,
2014-05-26, 00:38:04,VALID,1009.98,VALID,0,INVALID,109.674,VALID,0,VALID,25.1362,VALID,299,VALID,0,
2014-05-26, 00:39:04,VALID,1010.01,VALID,0,INVALID,109.651,VALID,0,VALID,25.1362,VALID,299,VALID,0,
2014-05-26, 00:40:04,VALID,1010,VALID,0,INVALID,109.666,VALID,0,VALID,25.1557,VALID,299,VALID,0,
2014-05-26, 00:41:04,VALID,1009.99,VALID,0,INVALID,109.651,VALID,0,VALID,25.1557,VALID,299,VALID,0,
2014-05-26, 00:42:04,VALID,1009.98,VALID,0,INVALID,109.635,VALID,0,VALID,25.1752,VALID,299,VALID,0,
2014-05-26, 00:43:04,VALID,1009.98,VALID,0,INVALID,109.681,VALID,0,VALID,25.1966,VALID,299,VALID,0,
2014-05-26, 00:44:04,VALID,1009.95,VALID,0,INVALID,109.689,VALID,0,VALID,25.1947,VALID,299,VALID,0,
2014-05-26, 00:45:04,VALID,1009.94,VALID,0,INVALID,109.712,VALID,0,VALID,25.1947,VALID,299,VALID,0,
2014-05-26, 00:46:04,VALID,1009.91,VALID,0,INVALID,109.742,VALID,0,VALID,25.1947,VALID,299,VALID,0,
2014-05-26, 00:47:04,VALID,1009.91,VALID,0,INVALID,109.727,VALID,0,VALID,25.2161,VALID,299,VALID,0,
2014-05-26, 00:48:04,VALID,1009.91,VALID,0,INVALID,109.689,VALID,0,VALID,25.1752,VALID,299,VALID,0,
2014-05-26, 00:49:04,VALID,1009.89,VALID,0,INVALID,109.651,VALID,0,VALID,25.1771,VALID,299,VALID,0,
2014-05-26, 00:50:04,VALID,1009.93,VALID,0,INVALID,109.62,VALID,0,VALID,25.1167,VALID,299,VALID,0,
2014-05-26, 00:51:04,VALID,1009.9,VALID,0,INVALID,109.658,VALID,0,VALID,25.1167,VALID,299,VALID,0,
2014-05-26, 00:52:04,VALID,1009.85,VALID,0,INVALID,109.666,VALID,0,VALID,25.0778,VALID,299,VALID,0,
2014-05-26, 00:53:04,VALID,1009.82,VALID,0,INVALID,109.681,VALID,0,VALID,25.0583,VALID,299,VALID,0,
2014-05-26, 00:54:04,VALID,1009.8,VALID,0,INVALID,109.727,VALID,0,VALID,25.0193,VALID,299,VALID,0,
2014-05-26, 00:55:04,VALID,1009.78,VALID,0,INVALID,109.803,VALID,0,VALID,25.0193,VALID,299,VALID,0,
2014-05-26, 00:56:04,VALID,1009.72,VALID,0,INVALID,109.849,VALID,0,VALID,24.9803,VALID,299,VALID,0,
2014-05-26, 00:57:04,VALID,1009.71,VALID,0,INVALID,109.864,VALID,0,VALID,24.9413,VALID,299,VALID,0,
2014-05-26, 00:58:04,VALID,1009.69,VALID,0,INVALID,109.887,VALID,0,VALID,24.9023,VALID,299,VALID,0,
2014-05-26, 00:59:04,VALID,1009.66,VALID,0,INVALID,109.925,VALID,0,VALID,24.9042,VALID,299,VALID,0,
2014-05-26, 01:00:04,VALID,1009.63,VALID,0,INVALID,109.979,VALID,0,VALID,24.8633,VALID,299,VALID,0,
2014-05-26, 01:01:04,VALID,1009.59,VALID,0,INVALID,110.055,VALID,0,VALID,24.842,VALID,299,VALID,0,
2014-05-26, 01:02:04,VALID,1009.57,VALID,0,INVALID,110.131,VALID,0,VALID,24.8438,VALID,299,VALID,0,
2014-05-26, 01:03:04,VALID,1009.58,VALID,0,INVALID,110.146,VALID,0,VALID,24.8438,VALID,299,VALID,0,
2014-05-26, 01:04:04,VALID,1009.52,VALID,0,INVALID,110.215,VALID,0,VALID,24.8438,VALID,299,VALID,0,
2014-05-26, 01:05:04,VALID,1009.5,VALID,0,INVALID,110.246,VALID,0,VALID,24.8244,VALID,299,VALID,0,
2014-05-26, 01:06:04,VALID,1009.47,VALID,0,INVALID,110.261,VALID,0,VALID,24.8049,VALID,299,VALID,0,
2014-05-26, 01:07:04,VALID,1009.45,VALID,0,INVALID,110.246,VALID,0,VALID,24.7854,VALID,299,VALID,0,
2014-05-26, 01:08:04,VALID,1009.44,VALID,0,INVALID,110.253,VALID,0,VALID,24.7659,VALID,299,VALID,0,
2014-05-26, 01:09:04,VALID,1009.44,VALID,0,INVALID,110.268,VALID,0,VALID,24.7464,VALID,299,VALID,0,
2014-05-26, 01:10:04,VALID,1009.43,VALID,0,INVALID,110.268,VALID,0,VALID,24.7464,VALID,299,VALID,0,
2014-05-26, 01:11:04,VALID,1009.43,VALID,0,INVALID,110.284,VALID,0,VALID,24.7074,VALID,299,VALID,0,
2014-05-26, 01:12:04,VALID,1009.44,VALID,0,INVALID,110.329,VALID,0,VALID,24.6879,VALID,299,VALID,0,
2014-05-26, 01:13:04,VALID,1009.46,VALID,0,INVALID,110.299,VALID,0,VALID,24.6684,VALID,299,VALID,0,
2014-05-26, 01:14:04,VALID,1009.46,VALID,0,INVALID,110.291,VALID,0,VALID,24.6489,VALID,299,VALID,0,
2014-05-26, 01:15:04,VALID,1009.49,VALID,0,INVALID,110.291,VALID,0,VALID,24.6684,VALID,299,VALID,0,
2014-05-26, 01:16:04,VALID,1009.52,VALID,0,INVALID,110.291,VALID,0,VALID,24.6471,VALID,299,VALID,0,
2014-05-26, 01:17:04,VALID,1009.52,VALID,0,INVALID,110.284,VALID,0,VALID,24.6898,VALID,299,VALID,0,
2014-05-26, 01:18:04,VALID,1009.58,VALID,0,INVALID,110.253,VALID,0,VALID,24.6879,VALID,299,VALID,0,
2014-05-26, 01:19:04,VALID,1009.61,VALID,0,INVALID,110.284,VALID,0,VALID,24.7074,VALID,339,VALID,0,
2014-05-26, 01:20:04,VALID,1009.61,VALID,0,INVALID,110.291,VALID,0,VALID,24.7464,VALID,339,VALID,0,
2014-05-26, 01:21:04,VALID,1009.64,VALID,0,INVALID,110.299,VALID,0,VALID,24.7854,VALID,339,VALID,0,
2014-05-26, 01:22:04,VALID,1009.62,VALID,0,INVALID,110.314,VALID,0,VALID,24.8049,VALID,339,VALID,0,
2014-05-26, 01:23:04,VALID,1009.6,VALID,0,INVALID,110.36,VALID,0,VALID,24.8244,VALID,339,VALID,0,
2014-05-26, 01:24:04,VALID,1009.55,VALID,0,INVALID,110.39,VALID,0,VALID,24.8244,VALID,339,VALID,0,
2014-05-26, 01:25:04,VALID,1009.51,VALID,0,INVALID,110.39,VALID,0,VALID,24.8049,VALID,339,VALID,0,
2014-05-26, 01:26:04,VALID,1009.51,VALID,0,INVALID,110.383,VALID,0,VALID,24.8049,VALID,339,VALID,0,
2014-05-26, 01:27:04,VALID,1009.49,VALID,0,INVALID,110.375,VALID,0,VALID,24.7854,VALID,339,VALID,0,
2014-05-26, 01:28:04,VALID,1009.51,VALID,0,INVALID,110.375,VALID,0,VALID,24.7854,VALID,339,VALID,0,
2014-05-26, 01:29:04,VALID,1009.54,VALID,0,INVALID,110.36,VALID,0,VALID,24.7854,VALID,339,VALID,0,
2014-05-26, 01:30:04,VALID,1009.54,VALID,0,INVALID,110.36,VALID,0,VALID,24.8067,VALID,339,VALID,0,
2014-05-26, 01:31:04,VALID,1009.55,VALID,0,INVALID,110.337,VALID,0,VALID,24.8049,VALID,339,VALID,0,
2014-05-26, 01:32:04,VALID,1009.54,VALID,0,INVALID,110.291,VALID,0,VALID,24.7835,VALID,76,VALID,0,
2014-05-26, 01:33:04,VALID,1009.53,VALID,0,INVALID,110.329,VALID,0,VALID,24.8049,VALID,76,VALID,0,
2014-05-26, 01:34:04,VALID,1009.51,VALID,0,INVALID,110.322,VALID,0,VALID,24.8049,VALID,76,VALID,0,
2014-05-26, 01:35:04,VALID,1009.47,VALID,0,INVALID,110.314,VALID,0,VALID,24.8438,VALID,76,VALID,0,
2014-05-26, 01:36:04,VALID,1009.46,VALID,0,INVALID,110.314,VALID,0,VALID,24.8244,VALID,76,VALID,0,
2014-05-26, 01:37:04,VALID,1009.43,VALID,0,INVALID,110.276,VALID,0,VALID,24.8438,VALID,76,VALID,0,
2014-05-26, 01:38:04,VALID,1009.38,VALID,0,INVALID,110.238,VALID,0,VALID,24.8244,VALID,76,VALID,0,
2014-05-26, 01:39:04,VALID,1009.38,VALID,0,INVALID,110.23,VALID,0,VALID,24.8049,VALID,76,VALID,0,
2014-05-26, 01:40:04,VALID,1009.38,VALID,0,INVALID,110.223,VALID,0,VALID,24.8049,VALID,76,VALID,0,
2014-05-26, 01:41:04,VALID,1009.38,VALID,0,INVALID,110.2,VALID,0,VALID,24.8067,VALID,76,VALID,0,
2014-05-26, 01:42:04,VALID,1009.41,VALID,0,INVALID,110.185,VALID,0,VALID,24.7854,VALID,76,VALID,0,
2014-05-26, 01:43:04,VALID,1009.4,VALID,0,INVALID,110.169,VALID,0,VALID,24.7659,VALID,76,VALID,0,
2014-05-26, 01:44:04,VALID,1009.42,VALID,0,INVALID,110.146,VALID,0,VALID,24.7464,VALID,76,VALID,0,
2014-05-26, 01:45:04,VALID,1009.42,VALID,0,INVALID,110.146,VALID,0,VALID,24.7074,VALID,76,VALID,0,
2014-05-26, 01:46:04,VALID,1009.4,VALID,0,INVALID,110.146,VALID,0,VALID,24.7093,VALID,76,VALID,0,
2014-05-26, 01:47:04,VALID,1009.4,VALID,0,INVALID,110.169,VALID,0,VALID,24.6489,VALID,76,VALID,0,
2014-05-26, 01:48:04,VALID,1009.38,VALID,0,INVALID,110.177,VALID,0,VALID,24.6508,VALID,76,VALID,0,
2014-05-26, 01:49:04,VALID,1009.34,VALID,0,INVALID,110.215,VALID,0,VALID,24.6099,VALID,76,VALID,0,
2014-05-26, 01:50:04,VALID,1009.34,VALID,0,INVALID,110.23,VALID,0,VALID,24.6099,VALID,76,VALID,0,
2014-05-26, 01:51:04,VALID,1009.32,VALID,0,INVALID,110.253,VALID,0,VALID,24.571,VALID,76,VALID,0,
2014-05-26, 01:52:04,VALID,1009.28,VALID,0,INVALID,110.291,VALID,0,VALID,24.571,VALID,76,VALID,0,
2014-05-26, 01:53:04,VALID,1009.26,VALID,0,INVALID,110.284,VALID,0,VALID,24.5515,VALID,76,VALID,0,
2014-05-26, 01:54:04,VALID,1009.24,VALID,0,INVALID,110.291,VALID,0,VALID,24.571,VALID,76,VALID,0,
2014-05-26, 01:55:04,VALID,1009.2,VALID,0,INVALID,110.337,VALID,0,VALID,24.5515,VALID,76,VALID,0,
2014-05-26, 01:56:04,VALID,1009.18,VALID,0,INVALID,110.337,VALID,0,VALID,24.571,VALID,76,VALID,0,
2014-05-26, 01:57:04,VALID,1009.15,VALID,0,INVALID,110.352,VALID,0,VALID,24.5923,VALID,76,VALID,0,
2014-05-26, 01:58:04,VALID,1009.11,VALID,0,INVALID,110.352,VALID,0,VALID,24.5515,VALID,76,VALID,0,
2014-05-26, 01:59:04,VALID,1009.13,VALID,0,INVALID,110.352,VALID,0,VALID,24.571,VALID,76,VALID,0,
2014-05-26, 02:00:04,VALID,1009.1,VALID,0,INVALID,110.36,VALID,0,VALID,24.5515,VALID,76,VALID,0,
2014-05-26, 02:01:04,VALID,1009.09,VALID,0,INVALID,110.36,VALID,0,VALID,24.571,VALID,76,VALID,0,
2014-05-26, 02:02:04,VALID,1009.08,VALID,0,INVALID,110.368,VALID,0,VALID,24.571,VALID,76,VALID,0,
2014-05-26, 02:03:04,VALID,1009.06,VALID,0,INVALID,110.368,VALID,0,VALID,24.571,VALID,76,VALID,0,
2014-05-26, 02:04:04,VALID,1009.04,VALID,0,INVALID,110.375,VALID,0,VALID,24.571,VALID,76,VALID,0,
2014-05-26, 02:05:04,VALID,1009.02,VALID,0,INVALID,110.383,VALID,0,VALID,24.5515,VALID,76,VALID,0,
2014-05-26, 02:06:04,VALID,1009.03,VALID,0,INVALID,110.421,VALID,0,VALID,24.5515,VALID,76,VALID,0,
2014-05-26, 02:07:04,VALID,1009.06,VALID,0,INVALID,110.375,VALID,0,VALID,24.5515,VALID,76,VALID,0,
2014-05-26, 02:08:04,VALID,1009.02,VALID,0,INVALID,110.375,VALID,0.112112,VALID,24.5515,VALID,76,VALID,0,
2014-05-26, 02:09:04,VALID,1009.03,VALID,0,INVALID,110.39,VALID,0,VALID,24.571,VALID,76,VALID,0,
2014-05-26, 02:10:04,VALID,1008.99,VALID,0,INVALID,110.39,VALID,0,VALID,24.5301,VALID,76,VALID,0,
2014-05-26, 02:11:04,VALID,1008.94,VALID,0,INVALID,110.39,VALID,0,VALID,24.571,VALID,76,VALID,0,
2014-05-26, 02:12:04,VALID,1008.89,VALID,0,INVALID,110.368,VALID,0,VALID,24.5515,VALID,76,VALID,0,
2014-05-26, 02:13:04,VALID,1008.85,VALID,0,INVALID,110.36,VALID,0,VALID,24.571,VALID,76,VALID,0,
2014-05-26, 02:14:04,VALID,1008.82,VALID,0,INVALID,110.406,VALID,0,VALID,24.571,VALID,76,VALID,0,
2014-05-26, 02:15:04,VALID,1008.8,VALID,0,INVALID,110.39,VALID,0,VALID,24.571,VALID,76,VALID,0,
2014-05-26, 02:16:04,VALID,1008.81,VALID,0,INVALID,110.375,VALID,0,VALID,24.571,VALID,76,VALID,0,
2014-05-26, 02:17:04,VALID,1008.82,VALID,0,INVALID,110.375,VALID,0,VALID,24.571,VALID,76,VALID,0,
2014-05-26, 02:18:04,VALID,1008.86,VALID,0,INVALID,110.375,VALID,0,VALID,24.571,VALID,76,VALID,0,
2014-05-26, 02:19:04,VALID,1008.86,VALID,0,INVALID,110.368,VALID,0,VALID,24.5905,VALID,76,VALID,0,
2014-05-26, 02:20:04,VALID,1008.87,VALID,0,INVALID,110.383,VALID,0,VALID,24.5905,VALID,76,VALID,0,
2014-05-26, 02:21:04,VALID,1008.86,VALID,0,INVALID,110.406,VALID,0,VALID,24.5905,VALID,76,VALID,0,
2014-05-26, 02:22:04,VALID,1008.82,VALID,0,INVALID,110.383,VALID,0,VALID,24.5905,VALID,76,VALID,0,
2014-05-26, 02:23:04,VALID,1008.82,VALID,0,INVALID,110.406,VALID,0,VALID,24.5905,VALID,76,VALID,0,
2014-05-26, 02:24:04,VALID,1008.78,VALID,0,INVALID,110.421,VALID,0,VALID,24.571,VALID,76,VALID,0,
2014-05-26, 02:25:04,VALID,1008.79,VALID,0,INVALID,110.398,VALID,0,VALID,24.571,VALID,76,VALID,0,
2014-05-26, 02:26:04,VALID,1008.81,VALID,0,INVALID,110.429,VALID,0,VALID,24.571,VALID,76,VALID,0,
2014-05-26, 02:27:04,VALID,1008.79,VALID,0,INVALID,110.429,VALID,0,VALID,24.5515,VALID,76,VALID,0,
2014-05-26, 02:28:04,VALID,1008.81,VALID,0,INVALID,110.421,VALID,0,VALID,24.532,VALID,76,VALID,0,
2014-05-26, 02:29:04,VALID,1008.83,VALID,0,INVALID,110.406,VALID,0.112112,VALID,24.532,VALID,76,VALID,0,
2014-05-26, 02:30:04,VALID,1008.85,VALID,0,INVALID,110.406,VALID,0,VALID,24.5338,VALID,76,VALID,0,
2014-05-26, 02:31:04,VALID,1008.85,VALID,0,INVALID,110.429,VALID,0,VALID,24.493,VALID,76,VALID,0,
2014-05-26, 02:32:04,VALID,1008.86,VALID,0,INVALID,110.436,VALID,0,VALID,24.4735,VALID,76,VALID,0,
2014-05-26, 02:33:04,VALID,1008.84,VALID,0,INVALID,110.436,VALID,0,VALID,24.4949,VALID,76,VALID,0,
2014-05-26, 02:34:04,VALID,1008.85,VALID,0,INVALID,110.39,VALID,0.112112,VALID,24.454,VALID,76,VALID,0,
2014-05-26, 02:35:04,VALID,1008.81,VALID,0,INVALID,110.421,VALID,0,VALID,24.454,VALID,76,VALID,0,
2014-05-26, 02:36:04,VALID,1008.81,VALID,0,INVALID,110.413,VALID,0.112112,VALID,24.4345,VALID,76,VALID,0,
2014-05-26, 02:37:04,VALID,1008.81,VALID,0,INVALID,110.406,VALID,0,VALID,24.4345,VALID,76,VALID,0,
2014-05-26, 02:38:04,VALID,1008.8,VALID,0,INVALID,110.398,VALID,0,VALID,24.454,VALID,76,VALID,0,
2014-05-26, 02:39:04,VALID,1008.8,VALID,0,INVALID,110.406,VALID,0,VALID,24.454,VALID,76,VALID,0,
2014-05-26, 02:40:04,VALID,1008.79,VALID,0,INVALID,110.383,VALID,0,VALID,24.454,VALID,76,VALID,0,
2014-05-26, 02:41:04,VALID,1008.78,VALID,0,INVALID,110.383,VALID,0,VALID,24.454,VALID,76,VALID,0,
2014-05-26, 02:42:04,VALID,1008.81,VALID,0,INVALID,110.368,VALID,0,VALID,24.454,VALID,76,VALID,0,
2014-05-26, 02:43:04,VALID,1008.81,VALID,0,INVALID,110.383,VALID,0,VALID,24.454,VALID,76,VALID,0,
2014-05-26, 02:44:04,VALID,1008.85,VALID,0,INVALID,110.352,VALID,0,VALID,24.4345,VALID,76,VALID,0,
2014-05-26, 02:45:04,VALID,1008.87,VALID,0,INVALID,110.36,VALID,0,VALID,24.454,VALID,76,VALID,0,
2014-05-26, 02:46:04,VALID,1008.89,VALID,0,INVALID,110.352,VALID,0,VALID,24.454,VALID,76,VALID,0,
2014-05-26, 02:47:04,VALID,1008.92,VALID,0,INVALID,110.337,VALID,0,VALID,24.454,VALID,76,VALID,0,
2014-05-26, 02:48:04,VALID,1008.91,VALID,0,INVALID,110.352,VALID,0,VALID,24.4754,VALID,76,VALID,0,
2014-05-26, 02:49:04,VALID,1008.94,VALID,0,INVALID,110.329,VALID,0,VALID,24.4345,VALID,76,VALID,0,
2014-05-26, 02:50:04,VALID,1008.95,VALID,0,INVALID,110.314,VALID,0,VALID,24.454,VALID,76,VALID,0,
2014-05-26, 02:51:04,VALID,1008.97,VALID,0,INVALID,110.276,VALID,0,VALID,24.4735,VALID,76,VALID,0,
2014-05-26, 02:52:04,VALID,1008.94,VALID,0,INVALID,110.238,VALID,0,VALID,24.4735,VALID,76,VALID,0,
2014-05-26, 02:53:04,VALID,1008.95,VALID,0,INVALID,110.215,VALID,0,VALID,24.493,VALID,76,VALID,0,
2014-05-26, 02:54:04,VALID,1008.97,VALID,0,INVALID,110.207,VALID,0,VALID,24.5125,VALID,76,VALID,0,
2014-05-26, 02:55:04,VALID,1008.89,VALID,0,INVALID,110.2,VALID,0,VALID,24.5125,VALID,76,VALID,0,
2014-05-26, 02:56:04,VALID,1008.89,VALID,0,INVALID,110.192,VALID,0,VALID,24.532,VALID,76,VALID,0,
2014-05-26, 02:57:04,VALID,1008.84,VALID,0,INVALID,110.23,VALID,0,VALID,24.5338,VALID,76,VALID,0,
2014-05-26, 02:58:04,VALID,1008.82,VALID,0,INVALID,110.284,VALID,0,VALID,24.4949,VALID,76,VALID,0,
2014-05-26, 02:59:04,VALID,1008.81,VALID,0,INVALID,110.284,VALID,0,VALID,24.454,VALID,76,VALID,0,
2014-05-26, 03:00:04,VALID,1008.81,VALID,0,INVALID,110.261,VALID,0,VALID,24.454,VALID,76,VALID,0,
2014-05-26, 03:01:04,VALID,1008.79,VALID,0,INVALID,110.322,VALID,0,VALID,24.4345,VALID,76,VALID,0,
2014-05-26, 03:02:04,VALID,1008.8,VALID,0,INVALID,110.291,VALID,0,VALID,24.4345,VALID,76,VALID,0,
2014-05-26, 03:03:04,VALID,1008.76,VALID,0,INVALID,110.291,VALID,0,VALID,24.4345,VALID,76,VALID,0,
2014-05-26, 03:04:04,VALID,1008.77,VALID,0,INVALID,110.284,VALID,0,VALID,24.3956,VALID,76,VALID,0,
2014-05-26, 03:05:04,VALID,1008.77,VALID,0,INVALID,110.291,VALID,0,VALID,24.3956,VALID,76,VALID,0,
2014-05-26, 03:06:04,VALID,1008.79,VALID,0,INVALID,110.307,VALID,0,VALID,24.3956,VALID,76,VALID,0,
2014-05-26, 03:07:04,VALID,1008.77,VALID,0,INVALID,110.291,VALID,0,VALID,24.3956,VALID,76,VALID,0,
2014-05-26, 03:08:04,VALID,1008.78,VALID,0,INVALID,110.299,VALID,0,VALID,24.3974,VALID,76,VALID,0,
2014-05-26, 03:09:04,VALID,1008.77,VALID,0,INVALID,110.268,VALID,0,VALID,24.3761,VALID,76,VALID,0,
2014-05-26, 03:10:04,VALID,1008.75,VALID,0,INVALID,110.246,VALID,0,VALID,24.4364,VALID,76,VALID,0,
2014-05-26, 03:11:04,VALID,1008.75,VALID,0,INVALID,110.207,VALID,0,VALID,24.415,VALID,76,VALID,0,
2014-05-26, 03:12:04,VALID,1008.74,VALID,0,INVALID,110.154,VALID,0,VALID,24.454,VALID,76,VALID,0,
2014-05-26, 03:13:04,VALID,1008.75,VALID,0,INVALID,110.169,VALID,0.112112,VALID,24.454,VALID,76,VALID,0,
2014-05-26, 03:14:04,VALID,1008.73,VALID,0,INVALID,110.131,VALID,0,VALID,24.4735,VALID,76,VALID,0,
2014-05-26, 03:15:04,VALID,1008.74,VALID,0,INVALID,110.169,VALID,0,VALID,24.493,VALID,76,VALID,0,
2014-05-26, 03:16:04,VALID,1008.76,VALID,0,INVALID,110.101,VALID,0,VALID,24.5144,VALID,76,VALID,0,
2014-05-26, 03:17:04,VALID,1008.77,VALID,0,INVALID,110.085,VALID,0,VALID,24.5533,VALID,76,VALID,0,
2014-05-26, 03:18:04,VALID,1008.79,VALID,0,INVALID,110.101,VALID,0,VALID,24.5533,VALID,76,VALID,0,
2014-05-26, 03:19:04,VALID,1008.77,VALID,0,INVALID,110.093,VALID,0,VALID,24.5533,VALID,76,VALID,0,
2014-05-26, 03:20:04,VALID,1008.79,VALID,0,INVALID,110.093,VALID,0,VALID,24.5515,VALID,76,VALID,0,
2014-05-26, 03:21:04,VALID,1008.8,VALID,0,INVALID,110.101,VALID,0,VALID,24.5728,VALID,76,VALID,0,
2014-05-26, 03:22:04,VALID,1008.79,VALID,0,INVALID,110.108,VALID,0,VALID,24.5515,VALID,76,VALID,0,
2014-05-26, 03:23:04,VALID,1008.8,VALID,0,INVALID,110.108,VALID,0,VALID,24.5515,VALID,76,VALID,0,
2014-05-26, 03:24:04,VALID,1008.79,VALID,0,INVALID,110.162,VALID,0,VALID,24.5515,VALID,76,VALID,0,
2014-05-26, 03:25:04,VALID,1008.8,VALID,0,INVALID,110.177,VALID,0,VALID,24.532,VALID,76,VALID,0,
2014-05-26, 03:26:04,VALID,1008.79,VALID,0,INVALID,110.207,VALID,0,VALID,24.532,VALID,76,VALID,0,
2014-05-26, 03:27:04,VALID,1008.79,VALID,0,INVALID,110.253,VALID,0,VALID,24.5125,VALID,76,VALID,0,
2014-05-26, 03:28:04,VALID,1008.8,VALID,0,INVALID,110.261,VALID,0,VALID,24.493,VALID,76,VALID,0,
2014-05-26, 03:29:04,VALID,1008.8,VALID,0,INVALID,110.299,VALID,0,VALID,24.5144,VALID,76,VALID,0,
2014-05-26, 03:30:04,VALID,1008.8,VALID,0,INVALID,110.268,VALID,0,VALID,24.4735,VALID,76,VALID,0,
2014-05-26, 03:31:04,VALID,1008.81,VALID,0,INVALID,110.284,VALID,0,VALID,24.4949,VALID,76,VALID,0,
2014-05-26, 03:32:04,VALID,1008.81,VALID,0,INVALID,110.322,VALID,0,VALID,24.4754,VALID,76,VALID,0,
2014-05-26, 03:33:04,VALID,1008.85,VALID,0,INVALID,110.337,VALID,0,VALID,24.415,VALID,76,VALID,0,
2014-05-26, 03:34:04,VALID,1008.81,VALID,0,INVALID,110.337,VALID,0,VALID,24.4364,VALID,76,VALID,0,
2014-05-26, 03:35:04,VALID,1008.79,VALID,0,INVALID,110.368,VALID,0,VALID,24.3761,VALID,76,VALID,0,
2014-05-26, 03:36:04,VALID,1008.77,VALID,0,INVALID,110.352,VALID,0,VALID,24.4169,VALID,76,VALID,0,
2014-05-26, 03:37:04,VALID,1008.72,VALID,0,INVALID,110.368,VALID,0,VALID,24.3974,VALID,76,VALID,0,
2014-05-26, 03:38:04,VALID,1008.7,VALID,0,INVALID,110.337,VALID,0,VALID,24.3566,VALID,76,VALID,0,
2014-05-26, 03:39:04,VALID,1008.66,VALID,0,INVALID,110.329,VALID,0,VALID,24.3371,VALID,76,VALID,0,
2014-05-26, 03:40:04,VALID,1008.68,VALID,0,INVALID,110.314,VALID,0,VALID,24.3584,VALID,76,VALID,0,
2014-05-26, 03:41:04,VALID,1008.66,VALID,0,INVALID,110.322,VALID,0,VALID,24.3371,VALID,76,VALID,0,
2014-05-26, 03:42:04,VALID,1008.64,VALID,0,INVALID,110.276,VALID,0,VALID,24.3371,VALID,76,VALID,0,
2014-05-26, 03:43:04,VALID,1008.66,VALID,0,INVALID,110.291,VALID,0,VALID,24.3371,VALID,76,VALID,0,
2014-05-26, 03:44:04,VALID,1008.64,VALID,0,INVALID,110.314,VALID,0,VALID,24.3389,VALID,76,VALID,0,
2014-05-26, 03:45:04,VALID,1008.64,VALID,0,INVALID,110.307,VALID,0,VALID,24.2981,VALID,76,VALID,0,
2014-05-26, 03:46:04,VALID,1008.63,VALID,0,INVALID,110.345,VALID,0,VALID,24.2591,VALID,76,VALID,0,
2014-05-26, 03:47:04,VALID,1008.66,VALID,0,INVALID,110.345,VALID,0,VALID,24.2396,VALID,76,VALID,0,
2014-05-26, 03:48:04,VALID,1008.67,VALID,0,INVALID,110.337,VALID,0,VALID,24.2202,VALID,76,VALID,0,
2014-05-26, 03:49:04,VALID,1008.7,VALID,0,INVALID,110.329,VALID,0,VALID,24.2007,VALID,76,VALID,0,
2014-05-26, 03:50:04,VALID,1008.7,VALID,0,INVALID,110.322,VALID,0,VALID,24.2007,VALID,76,VALID,0,
2014-05-26, 03:51:04,VALID,1008.71,VALID,0,INVALID,110.284,VALID,0,VALID,24.222,VALID,76,VALID,0,
2014-05-26, 03:52:04,VALID,1008.75,VALID,0,INVALID,110.291,VALID,0,VALID,24.1812,VALID,76,VALID,0,
2014-05-26, 03:53:04,VALID,1008.76,VALID,0,INVALID,110.276,VALID,0,VALID,24.1812,VALID,76,VALID,0,
2014-05-26, 03:54:04,VALID,1008.75,VALID,0,INVALID,110.291,VALID,0,VALID,24.1617,VALID,76,VALID,0,
2014-05-26, 03:55:04,VALID,1008.76,VALID,0,INVALID,110.276,VALID,0,VALID,24.1617,VALID,76,VALID,0,
2014-05-26, 03:56:04,VALID,1008.74,VALID,0,INVALID,110.261,VALID,0,VALID,24.1635,VALID,76,VALID,0,